Wetterdaten: aktuell Donnerstag, 09.02.2023 07:20
Datum Zeit Temp. A. Temp. A. min Feuchte A. Luftdruck Regen Wind Richtung Richtung Sonnenschein Solar Taupunkt Windchill Windben
09.02.2023 07:20 -6,0 C -6,1 C 88 % 1033,1 hPa 0,0 l/m 0,2 km/h (0 Bft) O-NO 76 0 min 0 W/m -7,7 C -6,0 C 3,2 km/h (1 Bft)
09.02.2023 07:15 -6,1 C -6,2 C 88 % 1032,8 hPa 0,0 l/m 0,0 km/h (0 Bft) O 84 0 min 0 W/m -7,8 C -6,1 C 0,0 km/h (0 Bft)
09.02.2023 07:10 -6,2 C -6,3 C 88 % 1033,0 hPa 0,0 l/m 0,0 km/h (0 Bft) O 84 0 min 0 W/m -7,9 C -6,2 C 0,0 km/h (0 Bft)
09.02.2023 07:05 -6,2 C -6,3 C 88 % 1032,9 hPa 0,0 l/m 0,1 km/h (0 Bft) S-SO 165 0 min 0 W/m -7,9 C -6,2 C 1,6 km/h (1 Bft)
09.02.2023 07:00 -6,3 C -6,4 C 88 % 1032,7 hPa 0,0 l/m 0,0 km/h (0 Bft) S-SO 166 0 min 0 W/m -8,0 C -6,3 C 1,6 km/h (1 Bft)
09.02.2023 06:55 -6,4 C -6,5 C 88 % 1032,6 hPa 0,0 l/m 0,0 km/h (0 Bft) S 172 0 min 0 W/m -8,1 C -6,4 C 0,0 km/h (0 Bft)
09.02.2023 06:50 -6,4 C -6,5 C 87 % 1032,6 hPa 0,0 l/m 0,0 km/h (0 Bft) S 175 0 min 0 W/m -8,2 C -6,4 C 0,0 km/h (0 Bft)
09.02.2023 06:45 -6,5 C -6,5 C 87 % 1032,5 hPa 0,0 l/m 0,0 km/h (0 Bft) S 175 0 min 0 W/m -8,3 C -6,5 C 0,0 km/h (0 Bft)
09.02.2023 06:40 -6,5 C -6,6 C 87 % 1032,6 hPa 0,0 l/m 0,1 km/h (0 Bft) S 174 0 min 0 W/m -8,3 C -6,5 C 1,6 km/h (1 Bft)
09.02.2023 06:35 -6,5 C -6,6 C 87 % 1032,8 hPa 0,0 l/m 0,0 km/h (0 Bft) S 186 0 min 0 W/m -8,3 C -6,5 C 0,0 km/h (0 Bft)
09.02.2023 06:30 -6,6 C -6,6 C 86 % 1032,7 hPa 0,0 l/m 0,0 km/h (0 Bft) S 188 0 min 0 W/m -8,5 C -6,6 C 1,6 km/h (1 Bft)
09.02.2023 06:25 -6,6 C -6,6 C 86 % 1032,7 hPa 0,0 l/m 0,0 km/h (0 Bft) S 190 0 min 0 W/m -8,5 C -6,6 C 0,0 km/h (0 Bft)
09.02.2023 06:20 -6,5 C -6,5 C 86 % 1032,7 hPa 0,0 l/m 0,0 km/h (0 Bft) S 190 0 min 0 W/m -8,4 C -6,5 C 0,0 km/h (0 Bft)
09.02.2023 06:15 -6,5 C -6,5 C 86 % 1032,9 hPa 0,0 l/m 0,0 km/h (0 Bft) S 190 0 min 0 W/m -8,4 C -6,5 C 0,0 km/h (0 Bft)
09.02.2023 06:10 -6,5 C -6,5 C 86 % 1033,0 hPa 0,0 l/m 0,0 km/h (0 Bft) S 190 0 min 0 W/m -8,4 C -6,5 C 0,0 km/h (0 Bft)
09.02.2023 06:05 -6,4 C -6,5 C 86 % 1033,1 hPa 0,0 l/m 0,0 km/h (0 Bft) S 190 0 min 0 W/m -8,3 C -6,4 C 0,0 km/h (0 Bft)
09.02.2023 06:00 -6,4 C -6,5 C 86 % 1033,1 hPa 0,0 l/m 0,0 km/h (0 Bft) S 190 0 min 0 W/m -8,3 C -6,4 C 0,0 km/h (0 Bft)
09.02.2023 05:55 -6,4 C -6,4 C 86 % 1033,1 hPa 0,0 l/m 0,0 km/h (0 Bft) S 190 0 min 0 W/m -8,3 C -6,4 C 0,0 km/h (0 Bft)
09.02.2023 05:50 -6,4 C -6,4 C 86 % 1033,2 hPa 0,0 l/m 0,0 km/h (0 Bft) S 190 0 min 0 W/m -8,3 C -6,4 C 0,0 km/h (0 Bft)
09.02.2023 05:45 -6,4 C -6,4 C 86 % 1033,2 hPa 0,0 l/m 0,0 km/h (0 Bft) S 190 0 min 0 W/m -8,3 C -6,4 C 0,0 km/h (0 Bft)
09.02.2023 05:40 -6,4 C -6,4 C 86 % 1033,1 hPa 0,0 l/m 0,0 km/h (0 Bft) S 190 0 min 0 W/m -8,3 C -6,4 C 0,0 km/h (0 Bft)
09.02.2023 05:35 -6,4 C -6,4 C 86 % 1033,1 hPa 0,0 l/m 0,0 km/h (0 Bft) S 190 0 min 0 W/m -8,3 C -6,4 C 0,0 km/h (0 Bft)
09.02.2023 05:30 -6,4 C -6,4 C 86 % 1033,1 hPa 0,0 l/m 0,1 km/h (0 Bft) S 190 0 min 0 W/m -8,3 C -6,4 C 1,6 km/h (1 Bft)
09.02.2023 05:25 -6,4 C -6,4 C 86 % 1033,1 hPa 0,0 l/m 0,1 km/h (0 Bft) S 190 0 min 0 W/m -8,3 C -6,4 C 1,6 km/h (1 Bft)
09.02.2023 05:20 -6,4 C -6,4 C 86 % 1033,1 hPa 0,0 l/m 0,0 km/h (0 Bft) S-SW 202 0 min 0 W/m -8,3 C -6,4 C 0,0 km/h (0 Bft)
09.02.2023 05:15 -6,4 C -6,4 C 85 % 1033,0 hPa 0,0 l/m 0,0 km/h (0 Bft) S-SW 206 0 min 0 W/m -8,5 C -6,4 C 0,0 km/h (0 Bft)
09.02.2023 05:10 -6,3 C -6,4 C 85 % 1032,9 hPa 0,0 l/m 0,0 km/h (0 Bft) S-SW 206 0 min 0 W/m -8,4 C -6,3 C 0,0 km/h (0 Bft)
09.02.2023 05:05 -6,3 C -6,3 C 85 % 1033,0 hPa 0,0 l/m 0,0 km/h (0 Bft) S-SW 207 0 min 0 W/m -8,4 C -6,3 C 0,0 km/h (0 Bft)
09.02.2023 05:00 -6,3 C -6,3 C 85 % 1032,9 hPa 0,0 l/m 0,0 km/h (0 Bft) S-SW 209 0 min 0 W/m -8,4 C -6,3 C 0,0 km/h (0 Bft)
09.02.2023 04:55 -6,2 C -6,2 C 85 % 1032,9 hPa 0,0 l/m 0,0 km/h (0 Bft) S-SW 209 0 min 0 W/m -8,3 C -6,2 C 0,0 km/h (0 Bft)
09.02.2023 04:50 -6,2 C -6,2 C 84 % 1032,8 hPa 0,0 l/m 0,0 km/h (0 Bft) S-SW 209 0 min 0 W/m -8,4 C -6,2 C 0,0 km/h (0 Bft)
09.02.2023 04:45 -6,1 C -6,2 C 84 % 1032,9 hPa 0,0 l/m 0,0 km/h (0 Bft) S-SW 209 0 min 0 W/m -8,4 C -6,1 C 0,0 km/h (0 Bft)
09.02.2023 04:40 -6,1 C -6,1 C 84 % 1032,9 hPa 0,0 l/m 0,0 km/h (0 Bft) S-SW 209 0 min 0 W/m -8,4 C -6,1 C 0,0 km/h (0 Bft)
09.02.2023 04:35 -6,1 C -6,1 C 84 % 1032,9 hPa 0,0 l/m 0,0 km/h (0 Bft) S-SW 209 0 min 0 W/m -8,4 C -6,1 C 0,0 km/h (0 Bft)
09.02.2023 04:30 -6,0 C -6,0 C 84 % 1032,9 hPa 0,0 l/m 0,0 km/h (0 Bft) S-SW 209 0 min 0 W/m -8,3 C -6,0 C 0,0 km/h (0 Bft)
09.02.2023 04:25 -5,9 C -5,9 C 84 % 1032,9 hPa 0,0 l/m 0,0 km/h (0 Bft) S-SW 209 0 min 0 W/m -8,2 C -5,9 C 0,0 km/h (0 Bft)
09.02.2023 04:20 -5,9 C -5,9 C 84 % 1033,0 hPa 0,0 l/m 0,0 km/h (0 Bft) S-SW 209 0 min 0 W/m -8,2 C -5,9 C 0,0 km/h (0 Bft)
09.02.2023 04:15 -5,8 C -5,8 C 84 % 1033,0 hPa 0,0 l/m 0,0 km/h (0 Bft) S-SW 209 0 min 0 W/m -8,1 C -5,8 C 0,0 km/h (0 Bft)
09.02.2023 04:10 -5,8 C -5,8 C 84 % 1032,9 hPa 0,0 l/m 0,0 km/h (0 Bft) S-SW 209 0 min 0 W/m -8,1 C -5,8 C 0,0 km/h (0 Bft)
09.02.2023 04:05 -5,7 C -5,7 C 84 % 1032,9 hPa 0,0 l/m 0,0 km/h (0 Bft) S-SW 209 0 min 0 W/m -8,0 C -5,7 C 0,0 km/h (0 Bft)
09.02.2023 04:00 -5,7 C -5,7 C 84 % 1032,9 hPa 0,0 l/m 0,0 km/h (0 Bft) S-SW 209 0 min 0 W/m -8,0 C -5,7 C 0,0 km/h (0 Bft)
09.02.2023 03:55 -5,6 C -5,7 C 84 % 1032,8 hPa 0,0 l/m 0,0 km/h (0 Bft) S-SW 209 0 min 0 W/m -7,9 C -5,6 C 0,0 km/h (0 Bft)
09.02.2023 03:50 -5,6 C -5,6 C 84 % 1032,8 hPa 0,0 l/m 0,0 km/h (0 Bft) S-SW 209 0 min 0 W/m -7,9 C -5,6 C 0,0 km/h (0 Bft)
09.02.2023 03:45 -5,6 C -5,6 C 84 % 1032,9 hPa 0,0 l/m 0,0 km/h (0 Bft) S-SW 209 0 min 0 W/m -7,9 C -5,6 C 0,0 km/h (0 Bft)
09.02.2023 03:40 -5,5 C -5,6 C 84 % 1033,0 hPa 0,0 l/m 0,0 km/h (0 Bft) S-SW 209 0 min 0 W/m -7,8 C -5,5 C 0,0 km/h (0 Bft)
09.02.2023 03:35 -5,5 C -5,5 C 84 % 1032,9 hPa 0,0 l/m 0,0 km/h (0 Bft) S-SW 209 0 min 0 W/m -7,8 C -5,5 C 0,0 km/h (0 Bft)
09.02.2023 03:30 -5,4 C -5,4 C 83 % 1033,0 hPa 0,0 l/m 0,0 km/h (0 Bft) S-SW 209 0 min 0 W/m -7,8 C -5,4 C 0,0 km/h (0 Bft)
09.02.2023 03:25 -5,4 C -5,4 C 83 % 1033,0 hPa 0,0 l/m 0,0 km/h (0 Bft) S-SW 209 0 min 0 W/m -7,8 C -5,4 C 0,0 km/h (0 Bft)
09.02.2023 03:20 -5,4 C -5,4 C 83 % 1033,0 hPa 0,0 l/m 0,0 km/h (0 Bft) S-SW 209 0 min 0 W/m -7,8 C -5,4 C 0,0 km/h (0 Bft)
09.02.2023 03:15 -5,4 C -5,4 C 83 % 1032,9 hPa 0,0 l/m 0,0 km/h (0 Bft) S-SW 209 0 min 0 W/m -7,8 C -5,4 C 0,0 km/h (0 Bft)
09.02.2023 03:10 -5,3 C -5,4 C 83 % 1032,9 hPa 0,0 l/m 0,0 km/h (0 Bft) S-SW 209 0 min 0 W/m -7,7 C -5,3 C 0,0 km/h (0 Bft)
09.02.2023 03:05 -5,3 C -5,3 C 83 % 1033,0 hPa 0,0 l/m 0,0 km/h (0 Bft) S-SW 209 0 min 0 W/m -7,7 C -5,3 C 0,0 km/h (0 Bft)
09.02.2023 03:00 -5,3 C -5,3 C 83 % 1033,0 hPa 0,0 l/m 0,0 km/h (0 Bft) S-SW 209 0 min 0 W/m -7,7 C -5,3 C 0,0 km/h (0 Bft)
09.02.2023 02:55 -5,3 C -5,3 C 83 % 1033,1 hPa 0,0 l/m 0,0 km/h (0 Bft) S-SW 209 0 min 0 W/m -7,7 C -5,3 C 0,0 km/h (0 Bft)
09.02.2023 02:50 -5,2 C -5,3 C 83 % 1033,1 hPa 0,0 l/m 0,0 km/h (0 Bft) S-SW 209 0 min 0 W/m -7,6 C -5,2 C 0,0 km/h (0 Bft)
09.02.2023 02:45 -5,2 C -5,2 C 83 % 1033,1 hPa 0,0 l/m 0,0 km/h (0 Bft) S-SW 210 0 min 0 W/m -7,6 C -5,2 C 0,0 km/h (0 Bft)
09.02.2023 02:40 -5,2 C -5,2 C 83 % 1033,2 hPa 0,0 l/m 0,0 km/h (0 Bft) S-SW 210 0 min 0 W/m -7,6 C -5,2 C 0,0 km/h (0 Bft)
09.02.2023 02:35 -5,2 C -5,2 C 83 % 1033,4 hPa 0,0 l/m 0,0 km/h (0 Bft) S-SW 210 0 min 0 W/m -7,6 C -5,2 C 0,0 km/h (0 Bft)
09.02.2023 02:30 -5,2 C -5,2 C 83 % 1033,4 hPa 0,0 l/m 0,0 km/h (0 Bft) S-SW 210 0 min 0 W/m -7,6 C -5,2 C 0,0 km/h (0 Bft)
09.02.2023 02:25 -5,1 C -5,2 C 83 % 1033,4 hPa 0,0 l/m 0,0 km/h (0 Bft) S-SW 210 0 min 0 W/m -7,5 C -5,1 C 0,0 km/h (0 Bft)
09.02.2023 02:20 -5,1 C -5,1 C 83 % 1033,4 hPa 0,0 l/m 0,0 km/h (0 Bft) S-SW 210 0 min 0 W/m -7,5 C -5,1 C 0,0 km/h (0 Bft)
09.02.2023 02:15 -5,1 C -5,1 C 83 % 1033,4 hPa 0,0 l/m 0,0 km/h (0 Bft) S-SW 211 0 min 0 W/m -7,5 C -5,1 C 0,0 km/h (0 Bft)
09.02.2023 02:10 -5,1 C -5,1 C 83 % 1033,4 hPa 0,0 l/m 0,0 km/h (0 Bft) SW 215 0 min 0 W/m -7,5 C -5,1 C 0,0 km/h (0 Bft)
09.02.2023 02:05 -5,1 C -5,1 C 83 % 1033,4 hPa 0,0 l/m 0,0 km/h (0 Bft) SW 216 0 min 0 W/m -7,5 C -5,1 C 0,0 km/h (0 Bft)
09.02.2023 02:00 -5,0 C -5,0 C 82 % 1033,3 hPa 0,0 l/m 0,0 km/h (0 Bft) SW 227 0 min 0 W/m -7,6 C -5,0 C 0,0 km/h (0 Bft)
09.02.2023 01:55 -5,0 C -5,0 C 82 % 1033,3 hPa 0,0 l/m 0,0 km/h (0 Bft) SW 227 0 min 0 W/m -7,6 C -5,0 C 0,0 km/h (0 Bft)
09.02.2023 01:50 -4,9 C -4,9 C 82 % 1033,4 hPa 0,0 l/m 0,0 km/h (0 Bft) SW 227 0 min 0 W/m -7,5 C -4,9 C 0,0 km/h (0 Bft)
09.02.2023 01:45 -4,9 C -4,9 C 82 % 1033,4 hPa 0,0 l/m 0,0 km/h (0 Bft) SW 227 0 min 0 W/m -7,5 C -4,9 C 0,0 km/h (0 Bft)
09.02.2023 01:40 -4,8 C -4,8 C 82 % 1033,4 hPa 0,0 l/m 0,0 km/h (0 Bft) SW 229 0 min 0 W/m -7,4 C -4,8 C 0,0 km/h (0 Bft)
09.02.2023 01:35 -4,8 C -4,8 C 81 % 1033,4 hPa 0,0 l/m 0,0 km/h (0 Bft) SW 227 0 min 0 W/m -7,5 C -4,8 C 0,0 km/h (0 Bft)
09.02.2023 01:30 -4,7 C -4,8 C 81 % 1033,4 hPa 0,0 l/m 0,0 km/h (0 Bft) SW 228 0 min 0 W/m -7,4 C -4,7 C 0,0 km/h (0 Bft)
09.02.2023 01:25 -4,7 C -4,7 C 81 % 1033,4 hPa 0,0 l/m 0,0 km/h (0 Bft) SW 228 0 min 0 W/m -7,4 C -4,7 C 0,0 km/h (0 Bft)
09.02.2023 01:20 -4,6 C -4,7 C 81 % 1033,5 hPa 0,0 l/m 0,0 km/h (0 Bft) SW 228 0 min 0 W/m -7,4 C -4,6 C 0,0 km/h (0 Bft)
09.02.2023 01:15 -4,6 C -4,6 C 81 % 1033,6 hPa 0,0 l/m 0,0 km/h (0 Bft) SW 228 0 min 0 W/m -7,4 C -4,6 C 0,0 km/h (0 Bft)
09.02.2023 01:10 -4,5 C -4,5 C 81 % 1033,6 hPa 0,0 l/m 0,0 km/h (0 Bft) SW 228 0 min 0 W/m -7,3 C -4,5 C 0,0 km/h (0 Bft)
09.02.2023 01:05 -4,4 C -4,4 C 81 % 1033,7 hPa 0,0 l/m 0,0 km/h (0 Bft) SW 228 0 min 0 W/m -7,2 C -4,4 C 0,0 km/h (0 Bft)
09.02.2023 01:00 -4,3 C -4,3 C 80 % 1033,8 hPa 0,0 l/m 0,0 km/h (0 Bft) SW 228 0 min 0 W/m -7,2 C -4,3 C 0,0 km/h (0 Bft)
09.02.2023 00:55 -4,3 C -4,3 C 80 % 1033,8 hPa 0,0 l/m 0,0 km/h (0 Bft) SW 228 0 min 0 W/m -7,2 C -4,3 C 0,0 km/h (0 Bft)
09.02.2023 00:50 -4,3 C -4,3 C 80 % 1033,8 hPa 0,0 l/m 0,0 km/h (0 Bft) SW 228 0 min 0 W/m -7,2 C -4,3 C 0,0 km/h (0 Bft)
09.02.2023 00:45 -4,2 C -4,2 C 80 % 1033,8 hPa 0,0 l/m 0,0 km/h (0 Bft) SW 228 0 min 0 W/m -7,1 C -4,2 C 0,0 km/h (0 Bft)
09.02.2023 00:40 -4,1 C -4,1 C 80 % 1033,9 hPa 0,0 l/m 0,0 km/h (0 Bft) SW 228 0 min 0 W/m -7,0 C -4,1 C 0,0 km/h (0 Bft)
09.02.2023 00:35 -4,0 C -4,0 C 79 % 1033,9 hPa 0,0 l/m 0,0 km/h (0 Bft) SW 228 0 min 0 W/m -7,1 C -4,0 C 0,0 km/h (0 Bft)
09.02.2023 00:30 -3,9 C -3,9 C 79 % 1033,9 hPa 0,0 l/m 0,0 km/h (0 Bft) SW 228 0 min 0 W/m -7,0 C -3,9 C 0,0 km/h (0 Bft)
09.02.2023 00:25 -3,8 C -3,8 C 79 % 1033,8 hPa 0,0 l/m 0,0 km/h (0 Bft) SW 228 0 min 0 W/m -6,9 C -3,8 C 0,0 km/h (0 Bft)
09.02.2023 00:20 -3,8 C -3,8 C 79 % 1033,8 hPa 0,0 l/m 0,0 km/h (0 Bft) SW 228 0 min 0 W/m -6,9 C -3,8 C 0,0 km/h (0 Bft)
09.02.2023 00:15 -3,7 C -3,7 C 79 % 1033,9 hPa 0,0 l/m 0,0 km/h (0 Bft) SW 228 0 min 0 W/m -6,8 C -3,7 C 0,0 km/h (0 Bft)
09.02.2023 00:10 -3,7 C -3,7 C 78 % 1033,8 hPa 0,0 l/m 0,0 km/h (0 Bft) SW 228 0 min 0 W/m -7,0 C -3,7 C 0,0 km/h (0 Bft)
09.02.2023 00:05 -3,6 C -3,6 C 78 % 1033,9 hPa 0,0 l/m 0,0 km/h (0 Bft) SW 228 0 min 0 W/m -6,9 C -3,6 C 0,0 km/h (0 Bft)
09.02.2023 00:00 -3,5 C -3,5 C 78 % 1034,0 hPa 0,0 l/m 0,0 km/h (0 Bft) SW 227 0 min 0 W/m -6,8 C -3,5 C 0,0 km/h (0 Bft)
_ Min-Zeit 06:25 06:25 00:00 06:45 - 00:00 - - - - 06:25 06:25 00:00
Minimum _ -6,6 C -6,6 C 78 % 1032,5 hPa - 0,0 km/h (0 Bft) - - - - -8,5 C -6,6 C 0,0 km/h (0 Bft)
_ Max-Zeit 00:00 00:00 06:55 00:00 00:00 07:20 - - 00:00 00:00 00:00 00:00 07:20
Maximum _ -3,4 C -3,5 C 88 % 1034,0 hPa 0,0 l/m 0,2 km/h
O-NO (0 Bft)
- - 0 min 0 W/m -6,8 C -3,5 C 3,2 km/h
O-NO (1 Bft)
Durchschnitt _ -5,5 C -5,5 C 84 % 1033,2 hPa #0,0 l/m 0,0 km/h (0 Bft) N - #0 min. 0 W/m -7,8 C -5,5 C 0,1 km/h (0 Bft)